Location: LDNL
(36.4545°S, 141.6685°E)
Time: 13:02:37
(UTC+11:00)

Courier 1B Rocket - Pass Details

Date: 05 February 2023
Orbit: 920 x 1202 km, 28.2° (Epoch: 25 March)

Event Time Altitude Azimuth Distance (km) Brightness Sun altitude
Rises 09:50:45 0° 273° (W) 4,108 7.8 34.1°
Reaches altitude 10° 09:53:59 10° 283° (WNW) 3,135 7.3 34.8°
Maximum altitude 10:00:37 31° 341° (NNW) 1,939 6.7 36.1°
Drops below altitude 10° 10:07:01 10° 39° (NE) 3,017 8.3 37.4°
Sets 10:10:05 0° 49° (NE) 3,932 8.8 38.0°
